Portada
METAR-TAF:

METAR-TAF

Aeroports :

Millington, Tennessee, Estats Units d'Amèrica

latitud: 35-21-24N, longitud: 089-52-13W, altitud: 98 m

Observació

L'informe es va fer fa 17 minuts, a les 23:55 UTC
Vent 3 kt del Nord-Est
Temperatura 22°C
Humitat 65%
Pressió 1023 hPa
Visibilitat: 16.1 km
Cel ennuvolat a una alçada de 5500 ft

METAR: KNQA 202355Z AUTO 05003KT 10SM BKN055 22/15 A3020 RMK A01

Hora: 19:12 (00:12 UTC)


TAF: manca

Observacions i pronòstics meteorològics de més de 4000 aeroports (METAR i TAF).

Les estacions disponibles són els punts grocs i vermells al mapa.

Posi el ratolí al punt desitjat per veure el nom de l'estació.

Feu clic per veure les observacions i els pronòstics meteorològics.

Per canviar el mapa: feu clic els botons verds amb una creu de color negre per apropar; al botó verd amb un guió per allunyar la imatge; o en les fletxes verdes per a mapes adjacents.


METAR-TAF: